Regional Weather Roundup
Issued by NWS

Home | Current Version | Previous Version | Text Only | Print | Product List | Glossary On
Versions: 1 2 3 4 5 6 7 8 9 10 11 12 13 14 15 16 17 18 19 20 21 22 23 24 25 26 27
000
ASUS45 KCYS 251310
RWRWY

WYOMING REGIONAL WEATHER ROUNDUP
NATIONAL WEATHER SERVICE CHEYENNE WY
700 AM MDT SUN JUN 25 2017

NOTE:  "FAIR" INDICATES FEW OR NO CLOUDS BELOW 12,000 FEET
WITH NO SIGNIFICANT WEATHER AND/OR OBSTRUCTIONS TO VISIBILITY.

WYZ001-251400-
YELLOWSTONE NATIONAL PARK

CITY           SKY/WX    TMP DP  RH WIND       PRES   REMARKS
LK YELLOWSTONE   N/A     35  32  88 CALM      30.49S
W YELLOWSTONE  NOT AVBL

$$
WYZ002>013-054>058-071-098>099-251400-
NORTHERN WYOMING

CITY           SKY/WX    TMP DP  RH WIND       PRES   REMARKS
JACKSON        SUNNY     45  39  81 CALM      30.41S
CODY           FAIR      53  37  54 SW3       30.39S
GREYBULL       FAIR      55  35  47 CALM      30.33R
WORLAND        FAIR      54  41  61 NW3       30.33R
SHERIDAN       PTSUNNY   50  43  77 S3        30.33F
BUFFALO        FAIR      51  35  54 W3        30.36F
GILLETTE       PTSUNNY   50  38  63 CALM      30.35S
NEWCASTLE      FAIR      48  32  53 N6        30.38S

$$
WYZ014>020-022>026-101>103-251400-
CENTRAL WYOMING

CITY           SKY/WX    TMP DP  RH WIND       PRES   REMARKS
BIG PINEY      FAIR      45  36  70 CALM      30.44R
PINEDALE       FAIR      43  36  75 N5        30.45R
DUBOIS         FAIR      41  32  70 NW9       30.47S
LANDER         FAIR      52  37  56 W6        30.39R
RIVERTON       FAIR      53  34  48 N7        30.39R
CASPER         FAIR      52  33  48 E6        30.37F
DOUGLAS        PTSUNNY   55  33  43 S17       30.38F

$$
WYZ021-027>030-104>119-251400-
SOUTHERN WYOMING

CITY           SKY/WX    TMP DP  RH WIND       PRES   REMARKS
EVANSTON       FAIR      52  34  50 E8        30.41R
KEMMERER         N/A     52  32  46 N9        30.43S
FORT BRIDGER   FAIR      51  33  51 N3        30.44R
ROCK SPRINGS   FAIR      51  31  46 E14       30.40R
DIXON          FAIR      48  33  55 E7        30.40S
RAWLINS        FAIR      50  33  52 NE13      30.41R
SARATOGA       FAIR      46  36  66 SE5       30.42R
LARAMIE        FAIR      50  45  83 S14       30.41S
CHEYENNE       FAIR      49  38  65 NE6       30.41R
TORRINGTON     FAIR      54  37  52 S3        30.36S
PINE BLUFFS    FAIR      50  37  62 E9        30.39S

$$




USA.gov is the U.S. government's official web portal to all federal, state and local government web resources and services.